Date String (YYYY-MM-DD hh:mm:ss) UTC,Instrument flags,absolute air pressure of the measurement (hPa),sample flow rate (lpm),inlet stack bypass flow (lpm),air temperature of the measurement (°C),ambient temperature measured by the external sensor (°C),aerosol sample conditioner tube jacket temperature (°C),OPC LED temperature (°C),internal box temperature (°C),relative humidity of the measurement (%),span deviation,mass concentration of particles derived from Lorenz-Mie calculation of OPC scattering (μg/m³),mass concentration of particles derived from Lorenz-Mie calculation of OPC scattering (μg/m³),mass concentration of particles derived from Lorenz-Mie calculation of OPC scattering (μg/m³)
DateTimeUTC,F1_M11,P_M11,Q1_M11,Q2_M11,T1_M11,T2_M11,T3_M11,T4_M11,T5_M11,U1_M11,ZSPAN_M11,X0_M11,X2_M11,X1_M11
2023-08-04 14:00:00,SystemResetWarning,0833.9,5.01,000.00,031.5,026.7,000.0,038.6,031.7,33.3,0000.0,0008.32,0003.89,0003.44
2023-08-04 14:01:00,SystemResetWarning,0833.8,5.00,000.00,031.5,025.7,000.0,038.6,031.5,33.0,0000.0,0007.94,0003.89,0003.44
2023-08-04 14:02:00,SystemResetWarning,0833.8,5.00,000.00,031.4,025.6,000.0,038.6,031.2,32.6,0000.0,0007.91,0003.90,0003.43
2023-08-04 14:03:00,SystemResetWarning,0833.8,5.01,000.00,031.3,025.9,000.0,038.8,031.1,32.3,0000.0,0007.85,0003.92,0003.43
2023-08-04 14:04:00,SystemResetWarning,0833.7,5.00,000.00,031.2,026.3,000.0,038.8,031.2,33.0,0000.0,0007.80,0003.92,0003.43
2023-08-04 14:05:00,SystemResetWarning,0833.8,4.99,000.00,031.2,026.7,000.0,038.9,031.2,32.7,0000.0,0007.79,0003.93,0003.42
2023-08-04 14:06:00,SystemResetWarning,0833.8,5.00,000.00,031.2,027.1,000.0,039.0,031.3,32.6,0000.0,0008.07,0003.94,0003.42
2023-08-04 14:07:00,SystemResetWarning,0833.8,5.00,000.00,031.1,027.4,000.0,039.0,031.3,32.3,0000.0,0008.13,0003.96,0003.43
2023-08-04 14:08:00,SystemResetWarning,0833.8,4.99,000.00,031.1,027.6,000.0,039.0,031.4,32.8,0000.0,0008.12,0003.98,0003.43
2023-08-04 14:09:00,SystemResetWarning,0833.8,5.00,000.00,031.1,027.8,000.0,039.1,031.4,32.6,0000.0,0007.74,0003.99,0003.44
2023-08-04 14:10:00,SystemResetWarning,0833.8,5.00,000.00,031.1,028.0,000.0,039.1,031.5,32.8,0000.0,0008.37,0003.99,0003.44
2023-08-04 14:11:00,SystemResetWarning,0833.9,5.00,000.00,031.1,028.2,000.0,039.1,031.5,33.9,0000.0,0008.87,0003.97,0003.45
2023-08-04 14:12:00,SystemResetWarning,0833.8,5.00,000.00,031.1,028.3,000.0,039.1,031.6,34.1,0000.0,0009.20,0003.98,0003.46
2023-08-04 14:13:00,SystemResetWarning,0833.9,5.00,000.00,031.1,028.4,000.0,039.2,031.6,33.8,0000.0,0009.27,0004.00,0003.47
2023-08-04 14:14:00,SystemResetWarning,0833.9,5.00,000.00,031.1,028.5,000.0,039.2,031.6,34.2,0000.0,0009.26,0004.02,0003.48
2023-08-04 14:15:00,SystemResetWarning,0833.8,4.99,000.00,031.1,028.5,000.0,039.2,031.7,34.9,0000.0,0009.21,0004.01,0003.49
2023-08-04 14:16:00,SystemResetWarning,0833.9,5.01,000.00,031.2,028.3,000.0,039.1,031.7,34.3,0000.0,0009.15,0004.01,0003.51
2023-08-04 14:17:00,SystemResetWarning,0833.8,4.98,000.00,031.2,026.9,000.0,039.0,031.6,34.0,0000.0,0008.74,0004.04,0003.52
2023-08-04 14:18:00,SystemResetWarning,0833.8,5.02,000.00,031.2,025.7,000.0,038.9,031.4,34.1,0000.0,0008.61,0004.04,0003.52
2023-08-04 14:19:00,SystemResetWarning,0833.8,4.98,000.00,031.1,025.6,000.0,038.9,031.2,35.2,0000.0,0008.55,0004.01,0003.50
2023-08-04 14:20:00,SystemResetWarning,0833.8,5.04,000.00,031.1,025.9,000.0,038.9,031.1,34.5,0000.0,0008.53,0004.00,0003.50
2023-08-04 14:21:00,SystemResetWarning,0833.9,4.97,000.00,031.1,026.3,000.0,039.0,031.2,34.1,0000.0,0008.19,0004.00,0003.49
2023-08-04 14:22:00,SystemResetWarning,0833.8,5.01,000.00,031.2,026.7,000.0,039.0,031.3,34.4,0000.0,0007.75,0004.04,0003.49
2023-08-04 14:23:00,SystemResetWarning,0833.9,5.00,000.00,031.2,027.0,000.0,039.1,031.4,34.1,0000.0,0007.39,0004.04,0003.50
2023-08-04 14:24:00,SystemResetWarning,0833.8,4.99,000.00,031.2,027.3,000.0,039.1,031.4,34.4,0000.0,0007.59,0004.04,0003.51
2023-08-04 14:25:00,SystemResetWarning,0833.9,5.00,000.00,031.2,027.5,000.0,039.1,031.4,34.2,0000.0,0007.57,0004.02,0003.52
2023-08-04 14:26:00,SystemResetWarning,0833.9,5.01,000.00,031.2,027.7,000.0,039.2,031.5,33.8,0000.0,0007.82,0004.02,0003.52
2023-08-04 14:27:00,SystemResetWarning,0833.9,5.01,000.00,031.2,027.9,000.0,039.2,031.5,34.1,0000.0,0008.15,0004.04,0003.54
2023-08-04 14:28:00,SystemResetWarning,0833.9,5.00,000.00,031.2,028.1,000.0,039.2,031.6,33.9,0000.0,0008.16,0004.05,0003.55
2023-08-04 14:29:00,SystemResetWarning,0833.8,5.00,000.00,031.2,028.2,000.0,039.2,031.6,34.1,0000.0,0008.24,0004.08,0003.57
2023-08-04 14:30:00,SystemResetWarning,0833.9,5.00,000.00,031.2,028.3,000.0,039.2,031.6,34.1,0000.0,0008.59,0004.11,0003.59
2023-08-04 14:31:00,SystemResetWarning,0833.9,5.00,000.00,031.2,028.4,000.0,039.2,031.7,34.1,0000.0,0009.36,0004.14,0003.60
2023-08-04 14:32:00,SystemResetWarning,0833.9,5.00,000.00,031.2,028.5,000.0,039.3,031.7,34.3,0000.0,0009.88,0004.18,0003.62
2023-08-04 14:33:00,SystemResetWarning,0833.9,4.98,000.00,031.2,027.6,000.0,039.2,031.7,34.5,0000.0,0010.45,0004.17,0003.63
2023-08-04 14:34:00,SystemResetWarning,0833.8,5.00,000.00,031.1,026.0,000.0,039.0,031.4,34.6,0000.0,0010.44,0004.18,0003.65
2023-08-04 14:35:00,SystemResetWarning,0833.8,5.04,000.00,031.1,025.4,000.0,039.0,031.3,34.6,0000.0,0010.16,0004.20,0003.66
2023-08-04 14:36:00,SystemResetWarning,0833.8,4.96,000.00,031.0,025.6,000.0,039.0,031.1,33.9,0000.0,0010.06,0004.19,0003.66
2023-08-04 14:37:00,SystemResetWarning,0833.8,5.02,000.00,030.9,026.0,000.0,039.0,031.1,34.2,0000.0,0009.84,0004.19,0003.66
2023-08-04 14:38:00,SystemResetWarning,0833.8,5.01,000.00,030.9,026.4,000.0,039.0,031.1,34.4,0000.0,0009.58,0004.18,0003.65
2023-08-04 14:39:00,SystemResetWarning,0833.8,4.99,000.00,030.8,026.7,000.0,039.0,031.2,34.7,0000.0,0009.66,0004.17,0003.64
2023-08-04 14:40:00,SystemResetWarning,0833.8,5.00,000.00,030.8,027.1,000.0,039.0,031.3,34.4,0000.0,0009.54,0004.14,0003.64
2023-08-04 14:41:00,SystemResetWarning,0833.7,5.01,000.00,030.8,027.3,000.0,039.0,031.3,34.1,0000.0,0009.20,0004.14,0003.64
2023-08-04 14:42:00,SystemResetWarning,0833.8,5.01,000.00,030.8,027.6,000.0,039.0,031.4,33.9,0000.0,0008.38,0004.11,0003.63
2023-08-04 14:43:00,SystemResetWarning,0833.8,5.00,000.00,030.8,027.8,000.0,039.0,031.4,34.1,0000.0,0007.78,0004.07,0003.62
2023-08-04 14:44:00,SystemResetWarning,0833.8,5.00,000.00,030.8,028.0,000.0,039.0,031.4,34.6,0000.0,0006.98,0004.07,0003.61
2023-08-04 14:45:00,SystemResetWarning,0833.8,4.98,000.00,030.8,028.1,000.0,039.0,031.5,35.2,0000.0,0006.78,0004.04,0003.60
2023-08-04 14:46:00,SystemResetWarning,0833.8,5.02,000.00,030.9,028.2,000.0,039.0,031.6,35.6,0000.0,0006.94,0004.05,0003.59
2023-08-04 14:47:00,SystemResetWarning,0833.8,4.99,000.00,031.1,028.3,000.0,039.0,031.7,34.2,0000.0,0007.14,0004.09,0003.58
2023-08-04 14:48:00,SystemResetWarning,0833.8,4.98,000.00,031.2,028.4,000.0,039.0,031.8,33.6,0000.0,0007.07,0004.09,0003.59
2023-08-04 14:49:00,SystemResetWarning,0833.8,5.00,000.00,031.3,027.5,000.0,039.0,031.7,33.8,0000.0,0007.40,0004.11,0003.59
2023-08-04 14:50:00,SystemResetWarning,0833.8,4.99,000.00,031.3,026.0,000.0,038.9,031.5,33.6,0000.0,0007.85,0004.11,0003.59
2023-08-04 14:51:00,SystemResetWarning,0833.8,5.01,000.00,031.3,025.5,000.0,038.8,031.3,33.9,0000.0,0008.20,0004.13,0003.60
2023-08-04 14:52:00,SystemResetWarning,0833.8,5.01,000.00,031.1,025.6,000.0,038.9,031.1,34.7,0000.0,0008.60,0004.15,0003.61
2023-08-04 14:53:00,SystemResetWarning,0833.8,4.98,000.00,031.0,026.0,000.0,038.9,031.0,34.6,0000.0,0009.05,0004.19,0003.63
2023-08-04 14:54:00,SystemResetWarning,0833.7,5.00,000.00,030.9,026.4,000.0,039.0,031.1,35.4,0000.0,0009.08,0004.21,0003.65
2023-08-04 14:55:00,SystemResetWarning,0833.7,5.02,000.00,031.1,026.8,000.0,039.0,031.3,35.2,0000.0,0009.17,0004.26,0003.68
2023-08-04 14:56:00,SystemResetWarning,0833.8,4.98,000.00,031.3,027.1,000.0,039.0,031.4,34.3,0000.0,0009.28,0004.31,0003.70
2023-08-04 14:57:00,SystemResetWarning,0833.8,4.99,000.00,031.4,027.4,000.0,039.0,031.5,34.9,0000.0,0009.27,0004.33,0003.72
2023-08-04 14:58:00,SystemResetWarning,0833.8,5.03,000.00,031.6,027.6,000.0,039.1,031.6,35.4,0000.0,0009.73,0004.34,0003.75
2023-08-04 14:59:00,SystemResetWarning,0833.8,4.98,000.00,031.8,027.8,000.0,039.2,031.7,34.2,0000.0,0009.83,0004.39,0003.78
